Vertical_Velocity
6 3 4 20 10 17 12 -2 -3 -2 -3 -5 -9 -3 -7 0 4 2 1 1 -1 -1 -0 1 2 -1 -2 -3 0 -0 -2 1 2 -4 3 2 2 1 -1 -1 2 -0 -0
4 7 9 11 18 16 5 6 -1 -1 3 -0 7 5 1 2 3 3 1 0 1 -1 -2 1 -0 0 -1 -1 -2 -2 -3 1 2 -4 -1 -0 3 2 2 -2 0 1 0
3 5 5 8 5 7 24 14 1 -1 2 5 0 10 7 9 1 1 -0 -1 2 -0 -0 1 -1 -1 -0 -2 -2 -3 -2 -4 0 6 -1 -2 1 -1 2 2 -0 1 0
1 4 4 4 7 7 3 28 7 5 -3 -0 -2 -5 -13 -11 -3 -0 4 1 2 -1 -1 1 0 1 -2 -2 -1 -2 -2 -1 -4 -3 2 1 -2 -2 -0 1 0 1 1
3 3 2 -2 8 5 -0 4 30 9 6 4 1 -1 5 1 3 1 1 2 2 1 -2 -1 0 -1 -0 -2 -2 -3 -3 -1 -2 -2 -2 2 -0 -2 -2 -1 -3 -2 2
4 0 2 3 7 6 3 4 1 51 8 0 -3 2 1 -5 -4 -2 -2 -1 2 3 2 0 0 1 1 -1 -2 -1 -2 -2 -1 1 -1 1 -3 -4 -1 -3 -2 -1 1
2 -2 -0 -1 3 6 7 0 16 28 14 13 -1 -1 2 1 -1 -4 -4 -4 -5 -5 -4 -2 -3 -1 0 -0 1 -0 -2 -4 -2 -3 -2 -1 0 0 -0 -1 -4 -3 1
3 3 -2 4 -0 9 -1 -19 11 8 1 15 39 0 1 -1 4 -2 -4 -0 -1 -1 2 -1 0 -1 1 1 2 4 5 1 -2 -5 -2 1 -1 -1 1 0 -2 -1 -2
-2 2 -11 5 0 5 -15 2 -5 -5 -4 8 7 23 19 3 -8 -4 0 -1 3 -0 1 1 -1 -1 -1 -1 2 0 -2 -2 0 1 -1 -1 0 -0 1 2 -1 1 -3
-0 0 -10 4 2 6 1 -1 6 22 -6 4 13 6 2 4 1 2 -2 -4 1 2 2 0 -0 1 1 0 -0 -1 0 0 -1 -0 -2 -4 -1 0 -2 0 3 0 1
-1 -5 -0 -10 11 -5 2 -7 2 2 18 3 1 13 1 15 8 3 6 -2 1 1 0 1 1 -0 -1 -2 1 2 3 2 1 0 -1 -3 0 -2 -0 -0 0 2 0
6 6 16 9 2 -9 -5 1 8 -4 -9 17 10 9 18 -14 26 -4 -7 -4 -1 5 3 -0 2 2 3 3 1 -0 1 1 -2 -1 2 -1 -3 -3 1 -0 -2 0 2
-2 -3 -7 -15 1 0 5 3 -14 -1 4 -3 0 7 22 11 2 15 -3 3 1 -0 8 2 -1 0 -2 -0 1 -1 1 -1 2 1 -0 0 -5 -2 -1 -1 -1 -1 3
1 4 1 9 20 12 7 -6 8 -11 -4 -1 -1 1 13 1 20 8 13 6 7 0 5 7 7 7 2 0 0 1 -1 -4 0 4 2 2 -1 -0 0 -2 -3 0 1
-1 -1 -1 -5 -6 -7 5 4 3 -5 -6 4 13 -17 6 5 8 37 -11 6 13 2 7 0 -1 3 3 1 4 6 3 1 1 -0 -1 4 0 1 1 0 1 1 -1
-1 1 -0 3 2 9 -6 -4 4 -1 1 -5 6 1 -1 5 6 12 -17 9 11 1 8 5 6 -1 1 1 0 1 -5 -4 1 -5 -1 -0 2 -0 2 -0 0 2 2
0 1 -2 -3 -0 2 -9 5 9 -4 -2 2 1 1 -5 -6 -6 8 -10 15 1 0 5 6 3 0 -1 -4 -2 4 -0 -2 1 0 1 3 1 1 -0 1 3 0 -0
-1 -2 -3 -0 -2 0 3 -2 -11 3 -2 3 -1 7 1 -7 -2 1 13 8 -11 24 -1 -2 6 -3 -1 -1 -0 3 6 -1 1 -0 1 -0 3 2 0 -2 1 0 -1
-3 -2 -4 -1 2 -0 -6 0 4 -1 1 1 -6 12 -5 -7 -11 -5 23 -25 11 1 6 -2 -1 -3 -0 -1 -1 -5 -1 0 2 1 2 -2 -1 2 3 -3 -4 -0 -2
1 0 -2 -0 -1 -3 6 -1 -2 -2 -3 5 0 -1 0 4 0 -11 12 6 -3 4 13 11 2 1 1 -3 -1 2 3 1 -0 4 4 -3 -2 -1 -1 -1 0 -2 -2
-2 -1 -1 -1 -1 2 -2 -2 -2 -3 -2 -0 2 -4 -3 7 1 -1 -0 -10 1 6 13 5 7 11 8 -5 -3 1 -2 2 -1 0 0 -0 -1 -0 -0 7 -1 1 4
-3 -2 -1 -1 -2 -0 -1 1 -0 3 0 -2 -0 0 2 2 4 -3 -1 -1 -3 5 7 4 -2 4 3 5 8 -2 -5 2 4 3 2 1 2 3 3 3 1 3 -0
-0 0 2 0 -1 -2 -0 -2 2 -3 -3 -4 -4 5 -0 -3 -6 -6 -2 2 -3 -8 -0 -2 7 5 5 -0 9 1 -5 -0 -0 1 1 2 0 -1 3 0 -0 -0 -1
3 0 -1 1 2 0 -4 -2 -4 1 2 0 5 2 -1 -5 -6 4 0 -3 -5 -3 4 -4 -1 3 1 -3 -0 -1 1 2 -4 -0 -1 -1 2 -1 -0 -0 0 1 1
1 1 -2 -3 -4 -1 3 -2 -1 -2 2 1 -1 -2 -1 -4 -1 8 -1 -1 6 -8 -6 -6 -3 -0 0 1 -1 -0 2 0 -1 -6 -5 -3 3 0 1 1 -2 1 -1
-0 0 1 -1 0 -2 -2 -2 -4 -5 -4 -1 -2 -1 -0 1 5 3 0 1 0 -0 4 3 1 2 -3 -4 -3 0 -6 2 -0 -3 -4 -1 3 1 -2 -0 -0 -2 -3
Height
1448 1454 1459 1464 1470 1474 1480 1485 1492 1499 1505 1511 1516 1523 1527 1534 1539 1543 1547 1551 1555 1560 1564 1568 1571 1575 1579 1582 1586 1589 1591 1594 1597 1598 1601 1605 1607 1608 1609 1610 1611 1611 1611
1444 1446 1453 1460 1466 1472 1478 1482 1487 1493 1500 1505 1512 1518 1523 1530 1536 1541 1545 1550 1554 1557 1562 1566 1570 1573 1577 1581 1585 1588 1591 1594 1597 1599 1601 1605 1609 1609 1610 1611 1612 1612 1613
1445 1445 1449 1455 1459 1466 1474 1479 1483 1488 1495 1502 1508 1515 1523 1530 1535 1540 1543 1546 1551 1554 1559 1564 1568 1572 1576 1579 1583 1587 1590 1593 1597 1600 1601 1603 1605 1608 1610 1611 1613 1613 1614
1446 1445 1447 1451 1456 1461 1468 1475 1480 1484 1491 1497 1504 1509 1513 1519 1525 1532 1538 1543 1548 1552 1557 1561 1566 1570 1574 1578 1582 1586 1590 1593 1595 1598 1600 1601 1603 1606 1609 1610 1612 1613 1614
1448 1446 1447 1451 1453 1457 1462 1468 1473 1478 1485 1490 1496 1503 1509 1517 1522 1528 1535 1540 1545 1549 1553 1558 1563 1567 1571 1576 1580 1584 1588 1593 1595 1597 1600 1601 1603 1606 1607 1608 1612 1613 1614
1451 1450 1451 1451 1452 1455 1458 1463 1470 1473 1478 1485 1493 1500 1504 1509 1515 1524 1531 1536 1541 1545 1550 1555 1559 1564 1568 1572 1577 1582 1586 1590 1594 1597 1600 1602 1603 1605 1606 1607 1611 1613 1613
1458 1455 1451 1453 1452 1452 1457 1458 1460 1459 1468 1480 1486 1494 1499 1504 1509 1517 1523 1529 1535 1540 1545 1551 1556 1561 1565 1570 1575 1579 1583 1587 1591 1594 1598 1600 1602 1604 1606 1606 1609 1612 1612
1463 1460 1456 1458 1454 1454 1456 1460 1453 1443 1458 1472 1477 1484 1492 1500 1506 1511 1518 1524 1529 1535 1541 1547 1553 1558 1563 1567 1572 1576 1580 1584 1587 1591 1595 1597 1600 1602 1604 1605 1607 1609 1609
1471 1465 1464 1458 1456 1457 1455 1446 1454 1458 1461 1468 1464 1475 1484 1490 1498 1507 1514 1521 1526 1531 1538 1544 1549 1555 1560 1564 1568 1572 1576 1579 1584 1588 1591 1594 1597 1599 1601 1602 1604 1606 1607
1473 1466 1469 1463 1465 1455 1463 1458 1460 1455 1464 1463 1467 1473 1481 1481 1491 1501 1507 1514 1520 1526 1533 1539 1545 1550 1556 1560 1564 1569 1573 1576 1579 1584 1587 1591 1594 1596 1598 1599 1601 1603 1604
1480 1478 1472 1472 1463 1462 1461 1460 1467 1461 1461 1461 1467 1465 1469 1477 1486 1491 1496 1506 1514 1520 1526 1533 1539 1545 1550 1555 1560 1564 1568 1571 1575 1579 1582 1586 1589 1591 1593 1595 1597 1599 1600
1485 1481 1479 1469 1472 1467 1464 1455 1461 1465 1458 1455 1460 1465 1468 1474 1473 1484 1489 1498 1509 1515 1520 1527 1534 1539 1544 1549 1553 1559 1563 1566 1570 1574 1578 1581 1584 1586 1588 1590 1592 1594 1596
1491 1486 1481 1480 1474 1473 1470 1458 1464 1462 1463 1460 1457 1463 1468 1473 1471 1472 1485 1495 1504 1508 1514 1521 1528 1534 1539 1544 1548 1553 1558 1562 1566 1570 1573 1576 1579 1581 1583 1586 1588 1590 1592
1498 1494 1491 1487 1484 1478 1473 1474 1467 1467 1460 1462 1467 1460 1465 1469 1475 1474 1485 1488 1495 1500 1508 1515 1523 1525 1532 1537 1543 1548 1553 1557 1561 1565 1568 1571 1573 1576 1578 1580 1583 1585 1587
1499 1496 1490 1487 1485 1482 1480 1473 1473 1467 1469 1465 1470 1471 1465 1470 1472 1475 1477 1482 1487 1495 1504 1509 1515 1521 1527 1532 1537 1541 1546 1551 1555 1558 1561 1565 1568 1570 1573 1575 1577 1579 1581
1503 1499 1496 1495 1493 1486 1479 1478 1477 1476 1475 1473 1471 1466 1466 1474 1470 1475 1479 1474 1486 1490 1492 1499 1507 1514 1520 1525 1531 1536 1540 1545 1549 1552 1555 1559 1561 1564 1567 1569 1571 1574 1575
1506 1500 1498 1497 1493 1489 1489 1491 1483 1482 1482 1480 1476 1476 1468 1477 1481 1477 1482 1472 1479 1487 1487 1494 1500 1507 1513 1518 1525 1530 1533 1539 1543 1546 1550 1553 1555 1558 1560 1563 1565 1567 1569
1506 1503 1502 1501 1498 1493 1489 1485 1484 1485 1482 1478 1478 1479 1476 1479 1481 1479 1484 1469 1482 1477 1486 1493 1498 1502 1508 1514 1518 1524 1527 1532 1537 1540 1544 1547 1550 1552 1554 1556 1558 1560 1562
1509 1506 1505 1504 1500 1496 1494 1491 1487 1484 1483 1481 1484 1480 1479 1480 1486 1471 1473 1475 1478 1481 1484 1489 1495 1499 1504 1509 1512 1517 1522 1527 1530 1534 1538 1541 1544 1546 1548 1549 1552 1554 1556
1509 1507 1505 1503 1501 1499 1497 1491 1489 1488 1487 1486 1484 1482 1482 1482 1482 1490 1474 1476 1479 1485 1481 1486 1490 1496 1500 1505 1509 1514 1518 1521 1524 1528 1532 1534 1536 1538 1541 1543 1545 1548 1551
1509 1508 1507 1504 1501 1499 1497 1494 1494 1490 1488 1485 1484 1484 1486 1481 1480 1478 1479 1480 1484 1485 1480 1483 1490 1494 1498 1502 1507 1508 1512 1516 1519 1522 1524 1527 1530 1533 1536 1538 1540 1542 1545
1509 1508 1507 1504 1502 1499 1498 1497 1495 1493 1489 1487 1488 1487 1485 1482 1480 1480 1480 1480 1483 1483 1478 1482 1488 1491 1494 1499 1501 1500 1507 1512 1513 1515 1518 1521 1525 1527 1530 1532 1534 1536 1538
1509 1508 1505 1502 1502 1499 1497 1496 1494 1492 1490 1491 1492 1488 1481 1479 1481 1484 1485 1481 1481 1483 1485 1487 1489 1488 1490 1494 1493 1497 1503 1506 1508 1511 1513 1515 1518 1521 1524 1525 1528 1530 1531
1507 1504 1502 1502 1500 1499 1498 1497 1496 1495 1493 1494 1491 1484 1484 1485 1489 1486 1481 1482 1483 1484 1486 1484 1489 1487 1488 1490 1491 1494 1498 1500 1504 1506 1507 1510 1512 1515 1517 1519 1521 1523 1524
1504 1502 1502 1501 1500 1499 1498 1497 1496 1495 1493 1491 1488 1488 1489 1490 1492 1487 1483 1486 1485 1483 1487 1486 1488 1486 1488 1489 1488 1489 1491 1494 1496 1499 1503 1505 1506 1508 1511 1512 1514 1515 1516
1501 1501 1500 1500 1500 1500 1499 1497 1495 1494 1493 1491 1491 1492 1492 1492 1489 1484 1485 1484 1485 1484 1485 1484 1484 1483 1484 1485 1486 1486 1487 1489 1491 1492 1497 1499 1500 1500 1503 1505 1507 1509 1510